Regional Weather Roundup
Issued by NWS Boston, MA

Current Version | Previous Version | Text Only | Print | Product List | Glossary Off
Versions: 1 2 3 4 5 6 7 8 9 10 11 12 13 14 15 16 17 18 19 20 21 22 23 24 25 26 27 28 29 30 31 32 33 34 35 36 37 38 39 40 41 42 43 44 45 46 47 48 49 50
000 ASUS41 KBOX 180010 RWRBOX REGIONAL WEATHER ROUNDUP NATIONAL WEATHER SERVICE TAUNTON MA 800 PM EDT THU AUG 17 2017 NOTE: "FAIR" INDICATES FEW OR NO CLOUDS BELOW 12,000 FEET WITH NO SIGNIFICANT WEATHER AND/OR OBSTRUCTIONS TO VISIBILITY. MAZALL-180100- EASTERN MASSACHUSETTS CITY SKY/WX TMP DP RH WIND PRES REMARKS BOSTON MOCLDY 78 45 30 W9 29.97R 6HR MIN TEMP: 78; 6HR MAX TEMP: 83; BEVERLY MOCLDY 71 55 56 SE3 29.97R LAWRENCE PTCLDY 75 54 47 SW3 29.99R BEDFORD MOCLDY 67 54 63 CALM 29.97R BLUE HILL N/A 71 50 47 S9 30.00R NORWOOD MOCLDY 69 56 62 S3 29.98R MARSHFIELD PTCLDY 72 54 53 SW5 29.98S PLYMOUTH PTCLDY 69 51 52 SE3 30.00S TAUNTON PTCLDY 67 52 58 SE3 29.99R NEW BEDFORD PTCLDY 66 56 70 S5 30.00R $$ MAZALL-180100- CAPE COD AND THE ISLANDS CITY SKY/WX TMP DP RH WIND PRES REMARKS FALMOUTH PTCLDY 66 59 77 SW7 30.01S HYANNIS PTCLDY 69 60 73 SW10 29.99S CHATHAM CLEAR 68 60 75 SW7 30.01S PROVINCETOWN CLEAR 69 61 75 SW9 30.00R NANTUCKET CLEAR 62 58 86 S6 30.01R MARTHAS VNYRD PTCLDY 65 59 81 S7 30.01R $$ MAZALL-180100- CENTRAL AND WESTERN MASSACHUSETTS CITY SKY/WX TMP DP RH WIND PRES REMARKS WORCESTER MOCLDY 69 54 58 CALM 30.02R 6HR MIN TEMP: 69; 6HR MAX TEMP: 77; FITCHBURG CLOUDY 74 54 49 CALM 29.99S ORANGE CLOUDY 67 61 81 CALM 29.99R SPRINGFIELD MOCLDY 71 58 63 CALM 29.96S WESTFIELD PTCLDY 69 60 73 S3 29.97S NORTH ADAMS PTCLDY 65 60 84 CALM 29.99R PITTSFIELD MOCLDY 66 58 75 CALM 29.99S $$ RIZALL-180100- RHODE ISLAND CITY SKY/WX TMP DP RH WIND PRES REMARKS PROVIDENCE MOCLDY 71 57 61 S7 30.00S 6HR MIN TEMP: 71; 6HR MAX TEMP: 82; NEWPORT PTCLDY 68 61 78 S5 30.01R BLOCK ISLAND PTCLDY 69 61 75 S7 30.02R WESTERLY PTCLDY 71 59 65 SW3 30.01S $$ CTZALL-180100- CONNECTICUT CITY SKY/WX TMP DP RH WIND PRES REMARKS BRADLEY INTL PTCLDY 76 60 57 S7 29.97S 6HR MIN TEMP: 76; 6HR MAX TEMP: 82; HARTFORD PTCLDY 75 57 53 S9 29.98R BRIDGEPORT CLEAR 74 62 66 S6 29.99S DANBURY CLEAR 73 61 65 S6 30.00S GROTON CLEAR 69 61 75 S6 30.00R NEW HAVEN CLEAR 73 60 63 S7 30.00S CHESTER NOT AVBL MERIDEN PTCLDY 71 59 65 CALM 29.99R WILLIMANTIC PTCLDY 73 59 61 S5 30.00R OXFORD CLEAR 69 59 70 S7 30.02R $$ MEZ002-015-021-024-NHZ003-005-008-011-012-014-VTZ005-008-180100- NORTHERN NEW ENGLAND CITY SKY/WX TMP DP RH WIND PRES REMARKS PORTLAND ME PTCLDY 73 51 46 CALM 29.96R 6HR MIN TEMP: 73; 6HR MAX TEMP: 83; BANGOR ME PTCLDY 70 47 43 NW6 29.95R CONCORD NH CLEAR 71 56 58 CALM 29.98R MANCHESTER NH CLOUDY 75 53 46 S5 29.96R NASHUA NH PTCLDY 69 58 67 CALM 29.98R PORTSMOUTH NH MOCLDY 74 55 51 CALM 29.96R JAFFREY NH CLOUDY 65 59 81 CALM 30.02R KEENE NH N/A N/A N/A N/A MISG N/A BURLINGTON VT MOCLDY 73 59 61 SE3 29.96S MT. WASHINGTON FOG 45 45 100 NW28 N/A VSB 1/16 $$ NYZ052-076-180100- EASTERN NEW YORK CITY SKY/WX TMP DP RH WIND PRES REMARKS ALBANY MOCLDY 73 55 53 CALM 29.96S 6HR MIN TEMP: 73; 6HR MAX TEMP: 81; NEW YORK CITY MOCLDY 76 68 76 S10 29.97S 6HR MIN TEMP: 76; 6HR MAX TEMP: 82; $$ ANZALL-180100- MARINE OBSERVATIONS STATION/POSITION TIME TEMP WIND PRES VSBY WAVE AIR SEA DIR/SP/G HT/PER (UTC) (F) (DEG/KT/KT) (MB) (MI) (FT/S) BOSTON BUOY 2350 69 69 170/ 8/ 12 1014.2R 1/13 BUZZARDS BAY 2300 69 210/ 10/ 10 1016.1F NANTUCKET SOUND 2250 69 72 210/ 8/ 10 1015.8 1/ 4 MASS BAY-STELLWA 2304 71 68 170/ 10/ 14 1013.8S 2/ 3 ISLE OF SHOALS 2300 77 250/ 10/ 10 1014.2R S OF BLOCK IS NOT AVBL $$ ......................KEY......................... SKY/WX - SKY CONDITION/PRESENT WEATHER TMP - TEMPERATURE IN FAHRENHEIT DWPT - DEWPOINT IN FAHRENHEIT RH - RELATIVE HUMIDITY IN PERCENT WIND - DIRECTION AND SPEED IN MPH PRES - MEAN SEA LEVEL PRESSURE IN INCHES OF HG WCI - WIND CHILL INDEX VSB - VISIBILITY IN MILES HX - HEAT INDEX TC - TEMPERATURE IN CELSIUS VRB - VARIABLE WIND DIRECTION N/A - NOT AVAILABLE

USA.gov is the U.S. government's official web portal to all federal, state and local government web resources and services.